BEAK (58612 NORAD) Tracking and Keplerian Element Data

This shows tracking and keplerian element data for the satellite.

Feedback or suggestion? Click here.




ElementValue
Catalog58612
NameBEAK
Epoch Orbit396
Epoch Day12.37373669
Epoch Year2024
RAAN11.8885
Inclination51.6405
Eccentricity0.0005897
Argument of Perigee71.5991
Mean Anonmoly288.564
Mean Motion15.53662521
Decay Rate0.00054911
L11 58612U 98067WD 24012.37373669 .00054911 00000+0 84471-3 0 9991
L22 58612 51.6405 11.8885 0005897 71.5991 288.5640 15.53662521 3964



Live tracking and technical data element details for BEAK (NORAD 58612). BEAK can be tracked NOW for your location showing map with azimuth and elevation plus other details from your city location.







IsCatalogInMostPopularTable: catalog: 58612, numindb: 26
Update: records affected: 1



GetName: 58612 BEAK

Hit Count: updated at: Wed, 17 Apr 2024 02:08:51 GMT